FENGYUN 1C DEB, 31841

Orbit data source: Space-Track

FENGYUN 1C DEB, 31841 is space debris in SSO originally from a launch on Mon, 10 May 1999 UTC launched from the Taiyaun Space Center, China (TSC). Fengyun 1C debris stems from the Chinese weather satellite Fengyun-1C, which was intentionally destroyed by a Chinese anti-satellite missile in 2007. This event dramatically increased the amount of space debris, with thousands of trackable fragments posing hazards to satellites and human spaceflight. The Fengyun 1C debris cloud has become a focal point in discussions about space sustainability and the need for international regulations to prevent the creation of new debris.

Loading next visibility...
Identifier
31841, 1999-025CJF
Orbit
SSO
Country
Flag of CNCN / PRC
Related business
Manufacturer
Unknown
Mission
Spacecraft
Bus & Motor
Unknown
Mass
Unknown
Launch date (UTC)
1999-05-10 (27 years ago)
Launch vehicle
Unknown
Launch site
Taiyaun Space Center, China (TSC)
Object type
Payload
Rocket body
Debris
Shape & HBR
Unknown shape, 0.1 m
Radar Cross Section
Small (<0.1 m²)

Expand to show TLE details & history
Last TLE update: 2 days ago

TLE from 2 days ago
0 FENGYUN 1C DEB
1 31841U 99025CJF 26261.68516774  .00002607  00000-0  10778-2 0  9993
2 31841  98.4472  56.1995 0301986 230.8979 138.4321 14.05692564632705
Epoch: 2026-09-18T16:26Z
TLE epoch observation values (Epoch: 2026-09-18T16:26:38.492Z)
Latitude
11.38919°
Longitude
170.22911°
Altitude
1,042.997 km
Speed
7.246 km/s
True Right ascension
03h 37m 58s
True Declination
11° 19' 31"
Sunlit
Object was in partial shadow at epoch
Visualization orbit readout
Latitude
Unknown
Longitude
Unknown
Altitude
Unknown
Speed
Unknown
Apparent Right ascension
Unknown
Apparent Declination
Unknown
Sunlit
N/A
Visualization observer readout
Local Sidereal Time
02:10:58
Azimuth
Unknown
Elevation
Unknown
Doppler factor
Unknown
Orbital elements
Apogee altitude
1,090.234 km
Perigee altitude
652.388 km
Semi-major axis
7,249.448 km
Eccentricity
0.0302
Inclination
98.4472°
RAAN
56.1995°
Arg. of periapsis
230.8979°
True anomaly
140.66448°
Mean anomaly
138.4321°
Eccentric anomaly
139.55456°
Mean motion
3.5163 °/min
Orbital period
102.38 mins
BSTAR
0.0010778
Loading maneuver chart data...
Computing Atmospheric mass density...

Documentation

Showing up to 5 results
|